Concord, NC

6:52 PM EDT on October 16, 2017 (GMT -0400)
Concord Regional

Weather History for KJQF - January, 2013

Change the Weather History Date:

Thursday, January 3, 2013

  Actual Average (KCLT) Record (KCLT)
Temperature  
Mean Temperature 37 °F -  
Max Temperature 44 °F 50 °F 74 °F (2004)
Min Temperature 30 °F 32 °F 8 °F (1887)
Degree Days  
Heating Degree Days 28    
Moisture  
Dew Point 35 °F    
Average Humidity 85    
Maximum Humidity 100    
Minimum Humidity 71    
Precipitation  
Precipitation 0.00 in - - ()
Sea Level Pressure  
Sea Level Pressure 30.22 in    
Wind  
Wind Speed 1 mph (NNE)    
Max Wind Speed 6 mph    
Max Gust Speed -    
Visibility 8 miles    
Events      
Averages and records for this station are not official NWS values.
T = Trace of Precipitation, MM = Missing Value Source: NWS Daily Summary

Daily Weather History Graph

Daily Weather History Graph

Search for Another Location

Airport or City:

Trip Planner

Search our weather history database for the weather conditions in past years. The results will help you decide how hot, cold, wet, or windy it might be!

Date:

Astronomy

Jan. 03, 2013 Rise Set
Actual Time 7:32 AM EST 5:23 PM EST
Civil Twilight 7:04 AM EST 5:51 PM EST
Nautical Twilight 6:32 AM EST 6:22 PM EST
Astronomical Twilight 6:01 AM EST 6:53 PM EST
Moon 11:41 PM EST (1/3) 10:57 AM EST (1/3)
Length of Visible Light 10h 47m
Length of Day
9h 50m
Waning Gibbous, 65% of the Moon is Illuminated
Jan 3
Waning Gibbous
Jan 4
Last Quarter
Jan 11
New
Jan 18
First Quarter
Jan 26
Full

Hourly Weather History & Observations

Time (EST) Temp. Windchill Dew Point Humidity Pressure Visibility Wind Dir Wind Speed Gust Speed Precip Events Conditions
12:15 AM 44.6 °F - 37.4 °F 76% 30.17 in 10.0 mi Calm Calm - N/A   Overcast
12:35 AM 42.8 °F 41.1 °F 37.4 °F 81% 30.15 in 10.0 mi ESE 3.5 mph - N/A   Overcast
12:55 AM 42.8 °F - 37.4 °F 81% 30.15 in 10.0 mi Calm Calm - N/A   Overcast
1:15 AM 42.8 °F - 37.4 °F 81% 30.15 in 10.0 mi Calm Calm - N/A   Overcast
1:35 AM 42.8 °F - 37.4 °F 81% 30.15 in 10.0 mi Calm Calm - N/A   Overcast
1:55 AM 42.8 °F - 37.4 °F 81% 30.15 in 10.0 mi Calm Calm - N/A   Overcast
2:15 AM 42.8 °F - 37.4 °F 81% 30.17 in 10.0 mi Calm Calm - N/A   Overcast
2:35 AM 42.8 °F 40.1 °F 37.4 °F 81% 30.19 in 10.0 mi North 4.6 mph - N/A   Overcast
2:55 AM 42.8 °F - 37.4 °F 81% 30.19 in 10.0 mi Calm Calm - N/A   Overcast
3:15 AM 42.8 °F - 37.4 °F 81% 30.19 in 10.0 mi Calm Calm - N/A   Overcast
3:35 AM 42.8 °F - 37.4 °F 81% 30.19 in 10.0 mi Calm Calm - N/A   Overcast
3:55 AM 42.8 °F - 37.4 °F 81% 30.18 in 10.0 mi Calm Calm - N/A   Overcast
4:15 AM 42.8 °F - 37.4 °F 81% 30.17 in 10.0 mi Calm Calm - N/A   Overcast
4:35 AM 42.8 °F - 37.4 °F 81% 30.15 in 10.0 mi Calm Calm - N/A   Overcast
4:55 AM 42.8 °F - 37.4 °F 81% 30.16 in 10.0 mi Calm Calm - N/A   Overcast
5:15 AM 41.0 °F - 37.4 °F 87% 30.16 in 10.0 mi Calm Calm - N/A   Overcast
5:35 AM 41.0 °F - 37.4 °F 87% 30.17 in 10.0 mi Calm Calm - N/A   Overcast
5:55 AM 41.0 °F - 37.4 °F 87% 30.18 in 10.0 mi Calm Calm - N/A   Overcast
6:15 AM 41.0 °F 39.0 °F 37.4 °F 87% 30.18 in 10.0 mi NE 3.5 mph - N/A   Overcast
6:35 AM 42.8 °F 40.1 °F 37.4 °F 81% 30.19 in 10.0 mi North 4.6 mph - N/A   Overcast
6:55 AM 42.8 °F - 37.4 °F 81% 30.19 in 10.0 mi Calm Calm - N/A   Overcast
7:55 AM 42.8 °F - 37.4 °F 81% 30.21 in 10.0 mi Calm Calm - N/A   Overcast
8:55 AM 42.8 °F - 37.4 °F 81% 30.22 in 10.0 mi Calm Calm - N/A   Overcast
9:55 AM 42.8 °F 39.3 °F 37.4 °F 81% 30.24 in 5.0 mi North 5.8 mph - N/A   Overcast
10:55 AM 42.8 °F - 37.4 °F 81% 30.23 in 6.0 mi Calm Calm - N/A   Overcast
11:55 AM 44.6 °F - 37.4 °F 76% 30.21 in 5.0 mi Calm Calm - N/A   Overcast
12:55 PM 44.6 °F - 35.6 °F 71% 30.19 in 7.0 mi Calm Calm - N/A   Overcast
1:52 PM 44.6 °F - 35.6 °F 71% 30.18 in 7.0 mi Calm Calm - N/A   Overcast
2:55 PM 44.6 °F - 37.4 °F 76% 30.19 in 10.0 mi Calm Calm - N/A   Overcast
3:55 PM 44.6 °F - 37.4 °F 76% 30.21 in 10.0 mi Calm Calm - N/A   Overcast
4:55 PM 44.6 °F - 37.4 °F 76% 30.22 in 10.0 mi Calm Calm - N/A   Overcast
5:55 PM 39.2 °F - 35.6 °F 87% 30.24 in 10.0 mi Calm Calm - N/A   Scattered Clouds
6:55 PM 35.6 °F - 33.8 °F 93% 30.26 in 10.0 mi Calm Calm - N/A   Clear
8:15 PM 32.0 °F - 32.0 °F 100% 30.29 in 3.0 mi Calm Calm - N/A   Clear
8:35 PM 32.0 °F - 32.0 °F 100% 30.29 in 2.5 mi Calm Calm - N/A   Clear
8:55 PM 32.0 °F - 32.0 °F 100% 30.28 in 2.0 mi Calm Calm - N/A   Clear
9:15 PM 32.0 °F - 32.0 °F 100% 30.29 in 0.8 mi Calm Calm - N/A   Unknown
9:35 PM 32.0 °F - 30.2 °F 93% 30.29 in 4.0 mi Calm Calm - N/A   Clear
9:55 PM 32.0 °F - 30.2 °F 93% 30.30 in 1.8 mi Calm Calm - N/A   Unknown
10:15 PM 32.0 °F - 30.2 °F 93% 30.30 in 1.0 mi Calm Calm - N/A   Unknown
10:35 PM 30.2 °F - 30.2 °F 100% 30.30 in 2.0 mi Calm Calm - N/A   Clear
10:55 PM 30.2 °F - 28.4 °F 93% 30.31 in 1.0 mi Calm Calm - N/A   Unknown
11:15 PM 30.2 °F - 30.2 °F 100% 30.31 in 3.0 mi Calm Calm - N/A   Clear
11:35 PM 30.2 °F - 28.4 °F 93% 30.31 in 2.5 mi Calm Calm - N/A   Clear
11:55 PM 30.2 °F - 28.4 °F 93% 30.31 in 2.0 mi Calm Calm - N/A   Clear